Home > Weather > Chicago > Past weeks

Flag for USA Weather for the Past 2 Weeks in Chicago, Illinois, USA

Now
48 °F

Passing clouds.


Feels Like: 48 °F
Forecast: 44 / 62 °F
Wind: No wind

Location: Chicago Midway Airport

Current Time: May 3, 2016 at 12:45:54 AM

Latest Report: May 2, 2016 at 11:53 PM


Visibility: 10 mi

Pressure: 30.00 "Hg

Humidity: 59%

Dew Point: 34 °F

Location of ChicagoLocation

Historic Weather in Chicago — Graph

°F

Chicago Temperature Yesterday

Maximum temperature yesterday: 58 °F (at 2:53 PM)
Minimum temperature yesterday: 44 °F (at 3:53 AM)
Average temperature yesterday: 51 °F

High & Low Weather Summary for the Past Weeks

 TemperatureHumidityPressure
High83 °F (Apr 18, 1:53 PM)93% (Apr 21, 5:53 AM)30.32 "Hg (Apr 21, 5:53 AM)
Low42 °F (Apr 23, 2:53 AM)19% (Apr 18, 1:53 PM)29.56 "Hg (Apr 25, 6:53 PM)
Average55 °F66%29.99 "Hg
* Reported Apr 17 10:53 PM — May 2 10:53 PM, Chicago, Weather by CustomWeather, © 2016

Note: Actual official high and low records may vary slightly from our data, if they occured in-between our weather recording intervals... More about our weather records

Advertising

Chicago Weather History for the Previous 24 Hours

Scroll right to see more
 ConditionsComfort  
Time TempWeatherWind HumidityBarometerVisibility
10:53 PM
Mon, May 2
49 °FPassing clouds.No wind55%30.02 "Hg10 mi
9:53 PM50 °FPassing clouds.7 mph52%30.03 "Hg10 mi
8:53 PM51 °FPassing clouds.6 mph48%30.02 "Hg10 mi
7:53 PM54 °FPartly sunny.9 mph41%30.02 "Hg10 mi
6:53 PM55 °FPartly sunny.10 mph45%30.02 "Hg10 mi
5:53 PM55 °FPartly sunny.12 mph49%30.02 "Hg10 mi
4:53 PM56 °FBroken clouds.15 mph49%30.02 "Hg10 mi
3:53 PM56 °FScattered clouds.16 mph44%30.04 "Hg10 mi
2:53 PM58 °FScattered clouds.16 mph43%30.05 "Hg10 mi
1:53 PM56 °FScattered clouds.18 mph44%30.06 "Hg10 mi
12:53 PM56 °FScattered clouds.17 mph46%30.06 "Hg10 mi
11:53 AM55 °FPartly sunny.14 mph49%30.06 "Hg10 mi
10:53 AM52 °FPartly sunny.17 mph55%30.05 "Hg10 mi
9:53 AM53 °FPassing clouds.16 mph56%30.06 "Hg10 mi
8:53 AM51 °FPassing clouds.17 mph59%30.06 "Hg10 mi
7:53 AM49 °FScattered clouds.18 mph64%30.05 "Hg10 mi
6:53 AM47 °FPartly sunny.10 mph66%30.06 "Hg10 mi
5:53 AM46 °FPassing clouds.13 mph71%30.05 "Hg10 mi
4:53 AM45 °FMostly cloudy.15 mph76%30.05 "Hg10 mi
3:53 AM44 °FMostly cloudy.12 mph82%30.03 "Hg10 mi
2:53 AM45 °FMostly cloudy.12 mph86%30.02 "Hg10 mi
1:53 AM45 °FMostly cloudy.15 mph86%30.02 "Hg10 mi
12:53 AM46 °FOvercast.13 mph86%30.01 "Hg10 mi
Weather by CustomWeather, © 2016

See weather overviewHow to use our weather pages